[[{"header":{"parameterUnit":"m.s-1","parameterCategory":1,"la1":30.2991,"la2":30.254,"lo1":-89.0895,"lo2":-89.0444,"dy":0.0017,"dx":0.0017,"nx":28,"ny":28,"refTime":"2025-04-17T03:00:00:Z","depth":0,"parameterNumber":2,"parameterNumberName":"U-component_of_WINDS"},"data":[0,0,0,0,0,0,0,0,0,0,0,0,0,0,0,0,0,0,0,0,0,0,0,0,0,0,0,0,0,0,0,0,0,0,0,0,0,0,0,0,0,0,0,0,0,0,0,0,0,0,0,0,0,0,0,0,0,0,-0.6589,-0.6588,0,-0.6495,-0.6494,-0.6493,-0.6389,-0.6387,-0.6386,-0.6384,-0.6289,-0.6288,-0.6287,0,0,0,0,0,0,0,0,0,0,0,0,0,-0.6681,-0.668,-0.6589,-0.6588,-0.6587,-0.6495,-0.6494,-0.6493,-0.6389,-0.6387,-0.6385,-0.6383,-0.6289,-0.6288,-0.6287,0,0,0,0,0,0,0,0,0,0,0,0,0,-0.662,-0.6679,-0.6589,-0.6524,-0.6517,-0.6496,-0.6494,-0.6493,-0.6389,-0.6387,-0.6385,-0.6383,-0.629,-0.6288,-0.6287,-0.6322,0,0,-0.6282,-0.6281,0,0,0,0,0,0,0,0,-0.6623,-0.6616,-0.6535,-0.6528,-0.6521,-0.6451,-0.6491,-0.6436,-0.639,-0.6438,-0.6384,-0.6381,-0.6345,-0.6339,-0.6326,-0.6318,-0.6314,-0.6281,-0.628,-0.628,-0.6279,0,0,0,0,0,0,0,-0.6627,-0.662,-0.6552,-0.6534,-0.6525,-0.65,-0.6489,-0.648,-0.6406,-0.6433,-0.6426,-0.6416,-0.6341,-0.6328,-0.6323,-0.6312,-0.6281,-0.628,-0.6279,-0.6278,-0.6331,-0.6334,0,0,0,0,0,0,-0.6641,-0.6624,-0.6555,-0.6549,-0.6567,-0.65,-0.6488,-0.6476,-0.6405,-0.6392,-0.6418,-0.6411,-0.6332,-0.6325,-0.6319,-0.6358,-0.628,-0.6278,-0.6277,-0.6329,-0.6332,-0.6335,0,0,0,0,0,0,-0.6644,-0.6636,-0.6559,-0.6584,-0.6573,-0.6501,-0.6489,-0.6475,-0.6462,-0.6394,-0.638,-0.6419,-0.633,-0.6322,-0.6323,-0.6353,-0.6277,-0.6276,-0.6326,-0.633,-0.6333,-0.6434,0,0,0,0,0,0,-0.6647,-0.6638,-0.665,-0.6585,-0.6572,-0.6563,-0.6491,-0.6475,-0.646,-0.645,-0.639,-0.6378,-0.6327,-0.6326,-0.6321,-0.6349,-0.6275,-0.6323,-0.6328,-0.6332,-0.6428,-0.6441,-0.6452,0,0,0,0,0,-0.665,-0.6682,-0.6651,-0.6643,-0.6585,-0.6565,-0.6557,-0.6498,-0.6462,-0.6475,-0.6431,-0.638,-0.6351,-0.6327,-0.6321,-0.6349,-0.6321,-0.6327,-0.6332,-0.6423,-0.6438,-0.6452,0,0,0,0,0,0,-0.6751,-0.6672,-0.6637,-0.6648,-0.6614,-0.6548,-0.6561,-0.6516,-0.6492,-0.6484,-0.6411,-0.6399,-0.6409,-0.6379,-0.6354,-0.6381,-0.6329,-0.6333,-0.64,-0.6414,-0.6426,-0.6433,-0.6273,0,0,0,0,0,-0.6775,-0.6764,-0.6696,-0.6713,-0.6698,-0.6633,-0.6622,-0.6579,-0.6541,-0.6526,-0.6482,-0.6448,-0.6431,-0.6421,-0.6401,-0.6424,-0.641,-0.644,-0.6452,-0.6462,-0.6467,-0.6478,-0.6491,-0.6352,-0.6352,-0.6352,0,0,-0.6823,-0.6779,-0.6776,-0.6732,-0.67,-0.6693,-0.6621,-0.6615,-0.6609,-0.6525,-0.6523,-0.6491,-0.6448,-0.646,-0.6463,-0.6435,-0.6503,-0.6469,-0.6478,-0.6477,-0.6485,-0.6498,-0.651,-0.6356,-0.6355,-0.6355,0,0,-0.6907,-0.6872,-0.6883,-0.6853,-0.6807,-0.6764,-0.6767,-0.6707,-0.6683,-0.668,-0.6618,-0.661,-0.6582,-0.6554,-0.6536,-0.6613,-0.6567,-0.6609,-0.6672,-0.6684,-0.6695,-0.6704,-0.6732,-0.6743,-0.6614,-0.6614,-0.6615,0,-0.6973,-0.6957,-0.6894,-0.6892,-0.6875,-0.68,-0.6811,-0.6786,-0.6736,-0.6726,-0.6696,-0.666,-0.6626,-0.6632,-0.6651,-0.6639,-0.6641,-0.6615,-0.6698,-0.6707,-0.6715,-0.6741,-0.6752,-0.662,-0.6619,-0.6619,-0.6618,0,-0.7041,-0.7032,-0.7047,-0.7001,-0.6985,-0.699,-0.6929,-0.6921,-0.6881,-0.6842,-0.6841,-0.6798,-0.6769,-0.6767,-0.6727,-0.6768,-0.6753,-0.6711,-0.6657,-0.6735,-0.6758,-0.6768,-0.6628,-0.6626,-0.6624,-0.6623,0,0,-0.7184,-0.7105,-0.7111,-0.709,-0.7035,-0.7027,-0.703,-0.7001,-0.6997,-0.6966,-0.6967,-0.6946,-0.6909,-0.6889,-0.6846,-0.6856,-0.6922,-0.6813,-0.6811,-0.6836,-0.6966,-0.6997,-0.701,-0.6891,-0.6892,-0.6894,-0.6969,0,-0.7258,-0.7257,-0.7201,-0.7216,-0.7208,-0.7138,-0.714,-0.7108,-0.7072,-0.706,-0.7021,-0.7008,-0.6958,-0.6946,-0.6954,-0.6912,-0.6947,-0.6906,-0.6892,-0.6892,-0.6904,-0.7021,-0.7054,-0.7127,-0.6978,-0.698,-0.6981,0,-0.7344,-0.7319,-0.7333,-0.7279,-0.7274,-0.7277,-0.7248,-0.7237,-0.72,-0.7173,-0.7153,-0.7104,-0.7104,-0.7054,-0.7054,-0.7028,-0.7019,-0.6998,-0.7,-0.6996,-0.6941,-0.7021,-0.7149,-0.7161,-0.6994,-0.6993,-0.6992,0,-0.7448,-0.7417,-0.7422,-0.7406,-0.7343,-0.7348,-0.7322,-0.7282,-0.7269,-0.7245,-0.7236,-0.7212,-0.7199,-0.7182,-0.7129,-0.7097,-0.7136,-0.708,-0.7114,-0.7116,-0.7125,-0.7125,-0.7254,-0.712,-0.712,-0.7119,-0.7119,0,-0.7536,-0.7548,-0.7468,-0.7471,-0.7483,-0.742,-0.7433,-0.7401,-0.7367,-0.7363,-0.7301,-0.73,-0.723,-0.7221,-0.7179,-0.7187,-0.7181,-0.716,-0.7149,-0.7166,-0.7168,-0.7158,-0.7152,-0.7122,-0.7122,-0.7121,-0.7121,0,-0.7653,-0.76,-0.7601,-0.7542,-0.7528,-0.7539,-0.7489,-0.749,-0.7452,-0.7449,-0.7444,-0.7384,-0.737,-0.7316,-0.7289,-0.7262,-0.7283,-0.7261,-0.7295,-0.7288,-0.7325,-0.7323,-0.7452,-0.7466,-0.7324,-0.7325,-0.7326,0,-0.7713,-0.772,-0.7663,-0.7656,-0.7633,-0.7623,-0.761,-0.7549,-0.7539,-0.7498,-0.7505,-0.7486,-0.7468,-0.745,-0.7405,-0.7385,-0.7362,-0.7409,-0.7358,-0.7375,-0.7363,-0.7363,-0.7364,-0.7419,-0.7421,-0.7423,-0.7424,0,-0.7825,-0.7799,-0.7782,-0.7758,-0.7745,-0.7723,-0.7697,-0.7695,-0.7627,-0.7619,-0.7605,-0.7591,-0.7565,-0.7548,-0.752,-0.7495,-0.7449,-0.7441,-0.7447,-0.7464,-0.7484,-0.7474,-0.7325,-0.7437,-0.7436,-0.7435,-0.7434,-0.7434,-0.7915,-0.7919,-0.788,-0.7864,-0.7839,-0.7817,-0.7816,-0.7778,-0.7764,-0.7738,-0.7703,-0.7694,-0.7658,-0.7617,-0.7596,-0.7588,-0.7562,-0.7572,-0.7574,-0.7578,-0.7586,-0.7486,-0.7583,-0.7582,-0.7582,-0.7582,-0.7581,0,-0.8024,-0.7996,-0.7982,-0.7949,-0.7938,-0.7896,-0.7866,-0.7859,-0.7852,-0.7822,-0.7806,-0.7791,-0.7775,-0.7729,-0.7709,-0.7712,-0.7691,-0.7709,-0.7708,-0.7703,-0.761,-0.7606,-0.7727,-0.7727,-0.7727,-0.7727,-0.7727,-0.7727,-0.8079,-0.8084,-0.8055,-0.8047,-0.8019,-0.8009,-0.7996,-0.7976,-0.7952,-0.7938,-0.7925,-0.7895,-0.786,-0.7837,-0.7821,-0.7808,-0.7804,-0.7829,-0.781,-0.7723,-0.7709,-0.7696,-0.7692,-0.7829,-0.7829,-0.7903,-0.7904,-0.7904]},{"header":{"parameterUnit":"m.s-1","parameterCategory":1,"la1":30.2991,"la2":30.254,"lo1":-89.0895,"lo2":-89.0444,"dy":0.0017,"dx":0.0017,"nx":28,"ny":28,"refTime":"2025-04-17T03:00:00:Z","depth":0,"parameterNumber":3,"parameterNumberName":"V-component_of_WINDS"},"data":[0,0,0,0,0,0,0,0,0,0,0,0,0,0,0,0,0,0,0,0,0,0,0,0,0,0,0,0,0,0,0,0,0,0,0,0,0,0,0,0,0,0,0,0,0,0,0,0,0,0,0,0,0,0,0,0,0,0,3.1398,3.1398,0,3.1394,3.1394,3.1394,3.1437,3.1438,3.1439,3.144,3.143,3.1428,3.1427,0,0,0,0,0,0,0,0,0,0,0,0,0,3.1435,3.1434,3.1398,3.1398,3.1398,3.1394,3.1394,3.1394,3.1436,3.1438,3.1439,3.1441,3.143,3.1429,3.1427,0,0,0,0,0,0,0,0,0,0,0,0,0,3.1424,3.1434,3.1398,3.1418,3.142,3.1394,3.1394,3.1394,3.1436,3.1438,3.144,3.1441,3.1431,3.1429,3.1427,3.1379,0,0,3.142,3.1419,0,0,0,0,0,0,0,0,3.1424,3.1422,3.1415,3.1417,3.1419,3.1418,3.1404,3.1389,3.1436,3.143,3.144,3.1442,3.1424,3.1422,3.1418,3.1378,3.1378,3.142,3.1419,3.1418,3.1417,0,0,0,0,0,0,0,3.1425,3.1423,3.1396,3.1415,3.1417,3.1426,3.1426,3.1401,3.1417,3.143,3.1434,3.1433,3.1425,3.142,3.1418,3.1378,3.142,3.1418,3.1417,3.1416,3.1298,3.1296,0,0,0,0,0,0,3.1424,3.1423,3.1396,3.1396,3.1426,3.1424,3.1424,3.1416,3.1417,3.1419,3.1431,3.1435,3.1422,3.142,3.1418,3.1361,3.1418,3.1416,3.1415,3.13,3.1298,3.1295,0,0,0,0,0,0,3.1425,3.1421,3.1396,3.1411,3.1408,3.1422,3.1412,3.1415,3.141,3.1418,3.142,3.1423,3.1424,3.142,3.1388,3.1361,3.1415,3.1413,3.1302,3.1299,3.1296,3.1247,0,0,0,0,0,0,3.1426,3.1421,3.1404,3.141,3.1407,3.1369,3.141,3.1414,3.1407,3.1412,3.1411,3.1413,3.1425,3.1391,3.1386,3.1359,3.1412,3.1305,3.1301,3.1297,3.1251,3.1243,3.1236,0,0,0,0,0,3.1427,3.1389,3.1403,3.14,3.1387,3.1367,3.1365,3.1382,3.1405,3.1387,3.1392,3.1413,3.1366,3.1388,3.1382,3.1354,3.1306,3.1302,3.1298,3.1254,3.1244,3.1236,0,0,0,0,0,0,3.1377,3.139,3.1406,3.1369,3.1367,3.1374,3.1352,3.1371,3.136,3.1365,3.1384,3.1384,3.1348,3.1348,3.1373,3.1308,3.1339,3.1334,3.1308,3.1299,3.1291,3.1291,3.141,0,0,0,0,0,3.1363,3.1348,3.1359,3.1325,3.1324,3.1338,3.133,3.1344,3.1341,3.134,3.1343,3.1338,3.1322,3.1311,3.1297,3.1252,3.1252,3.123,3.1223,3.1216,3.121,3.1186,3.1176,3.1281,3.1281,3.1281,0,0,3.1331,3.1336,3.1325,3.1316,3.1316,3.1298,3.1337,3.1316,3.1303,3.1336,3.1306,3.1308,3.1304,3.1266,3.1249,3.1264,3.1182,3.1211,3.1206,3.1203,3.118,3.117,3.1162,3.1278,3.1279,3.1279,0,0,3.1264,3.1267,3.124,3.1239,3.124,3.125,3.1243,3.1248,3.1251,3.1223,3.1247,3.1231,3.1203,3.1199,3.1193,3.1126,3.1144,3.1121,3.108,3.1056,3.1048,3.104,3.1015,3.1006,3.1116,3.1116,3.1116,0,3.1223,3.12,3.1222,3.1201,3.1195,3.1228,3.1199,3.1197,3.1191,3.1186,3.1205,3.1171,3.1171,3.1131,3.1115,3.111,3.1101,3.112,3.1047,3.104,3.1034,3.101,3.1,3.1113,3.1113,3.1113,3.1114,0,3.115,3.1133,3.111,3.1107,3.1099,3.1074,3.1091,3.108,3.1095,3.1102,3.1072,3.1073,3.1059,3.1051,3.1064,3.1013,3.1023,3.1045,3.1076,3.102,3.0998,3.0989,3.1109,3.111,3.1111,3.1111,0,0,3.1049,3.106,3.1051,3.105,3.1054,3.104,3.1016,3.1005,3.0995,3.099,3.0969,3.0946,3.0966,3.096,3.0973,3.0952,3.0897,3.0976,3.0976,3.096,3.084,3.0822,3.0811,3.0911,3.0909,3.0908,3.0839,0,3.0983,3.0944,3.0964,3.0921,3.0905,3.0937,3.0916,3.0914,3.0921,3.0907,3.0914,3.0897,3.0926,3.0922,3.0903,3.0908,3.0873,3.0914,3.0888,3.0887,3.0886,3.08,3.0781,3.0717,3.0831,3.083,3.0829,0,3.0899,3.0894,3.0851,3.0858,3.0852,3.0832,3.0824,3.0811,3.081,3.0817,3.0811,3.0829,3.0804,3.0838,3.0802,3.0829,3.082,3.0822,3.0819,3.0816,3.0853,3.0792,3.0697,3.0686,3.0815,3.0816,3.0817,0,3.0828,3.081,3.0782,3.078,3.0788,3.0773,3.0776,3.0777,3.0769,3.0762,3.0757,3.0745,3.0739,3.0729,3.0743,3.0767,3.0705,3.074,3.0707,3.0707,3.0691,3.0691,3.0591,3.0689,3.0689,3.0689,3.0689,0,3.0751,3.0722,3.075,3.0732,3.0701,3.0724,3.0692,3.0698,3.0699,3.0681,3.0708,3.069,3.0711,3.0695,3.0706,3.0674,3.0671,3.0674,3.0677,3.067,3.067,3.0663,3.0667,3.0686,3.0687,3.0687,3.0688,0,3.0665,3.0682,3.0653,3.0664,3.0666,3.0643,3.0651,3.0634,3.0644,3.0621,3.0617,3.0632,3.0614,3.0629,3.0611,3.0618,3.0576,3.0586,3.0577,3.0578,3.0544,3.0546,3.0434,3.042,3.0529,3.0528,3.0527,0,3.0613,3.0592,3.0602,3.0593,3.0594,3.058,3.0573,3.0595,3.0587,3.0585,3.0567,3.0553,3.0543,3.0513,3.0521,3.0507,3.0516,3.0478,3.0514,3.0508,3.0513,3.0513,3.0511,3.0469,3.0468,3.0467,3.0466,0,3.0519,3.0529,3.0519,3.0512,3.0504,3.0499,3.0496,3.0487,3.051,3.0498,3.0483,3.0475,3.0458,3.0443,3.0432,3.0433,3.0452,3.0455,3.0447,3.0439,3.0433,3.0434,3.0554,3.0457,3.0458,3.0459,3.0459,3.0459,3.0447,3.043,3.0434,3.0422,3.0423,3.042,3.0405,3.0414,3.0402,3.0391,3.0405,3.0385,3.0385,3.0373,3.0371,3.0354,3.037,3.0358,3.0354,3.035,3.0345,3.0438,3.0353,3.0353,3.0353,3.0354,3.0354,0,3.0353,3.0358,3.0347,3.0343,3.0333,3.0356,3.0354,3.0344,3.0327,3.0326,3.0316,3.0297,3.0283,3.029,3.0277,3.0262,3.0271,3.0258,3.0258,3.0257,3.0332,3.034,3.0251,3.0251,3.0251,3.0251,3.0251,3.0251,3.0302,3.0275,3.0286,3.0258,3.0263,3.0245,3.0242,3.0239,3.0238,3.0217,3.0206,3.0212,3.0214,3.0202,3.0189,3.0192,3.0184,3.0168,3.0173,3.0242,3.0252,3.0262,3.0269,3.0167,3.0166,3.0099,3.0099,3.0098]}]]